TimePST,TemperatureF,Dew PointF,Humidity,Sea Level PressureIn,VisibilityMPH,Wind Direction,Wind SpeedMPH,Gust SpeedMPH,PrecipitationIn,Events,Conditions,WindDirDegrees,DateUTC
12:00 AM,50.0,46.4,87,30.22,9.0,SSW,4.6,-,N/A,,Overcast,200,2013-02-15 08:00:00
1:00 AM,51.8,44.6,76,30.22,9.0,SSE,9.2,-,N/A,,Overcast,160,2013-02-15 09:00:00
2:00 AM,48.2,42.8,82,30.22,9.0,SSE,12.7,-,N/A,,Overcast,160,2013-02-15 10:00:00
3:00 AM,50.0,41.0,71,30.21,9.0,South,9.2,-,N/A,,Overcast,170,2013-02-15 11:00:00
4:00 AM,50,,,30.18,,SSE,15.0,,,,,160,2013-02-15 12:00:00
4:00 AM,50.0,41.0,71,30.19,9.0,SSE,19.6,-,N/A,,Overcast,150,2013-02-15 12:00:00
5:00 AM,50.0,39.2,66,30.17,9.0,SSE,13.8,21.9,N/A,,Overcast,160,2013-02-15 13:00:00
5:26 AM,48.2,39.2,71,30.16,9.0,SSE,12.7,-,N/A,Rain,Light Rain,160,2013-02-15 13:26:00
6:00 AM,48.2,41.0,76,30.15,9.0,SSE,12.7,20.7,N/A,Rain,Light Rain,160,2013-02-15 14:00:00
7:00 AM,46.4,42.8,87,30.14,7.0,SSE,10.4,-,N/A,Rain,Light Rain,160,2013-02-15 15:00:00
7:56 AM,46.4,42.8,87,30.12,9.0,SSE,20.7,-,N/A,,Overcast,150,2013-02-15 15:56:00
8:00 AM,46.4,42.8,87,30.12,8.0,SSE,16.1,24.2,N/A,,Overcast,150,2013-02-15 16:00:00
8:05 AM,46.4,42.8,87,30.12,8.0,SSE,15.0,21.9,N/A,Rain,Light Rain,150,2013-02-15 16:05:00
8:46 AM,46.4,42.8,87,30.11,9.0,SE,16.1,24.2,N/A,,Overcast,140,2013-02-15 16:46:00
9:00 AM,46.4,44.6,93,30.10,9.0,SSE,20.7,-,N/A,,Overcast,150,2013-02-15 17:00:00
9:01 AM,46.4,44.6,93,30.10,9.0,SSE,18.4,25.3,N/A,Rain,Light Rain,150,2013-02-15 17:01:00
9:27 AM,46.4,44.6,93,30.09,9.0,SSE,21.9,-,N/A,,Overcast,150,2013-02-15 17:27:00
10:00 AM,48,,,30.09,,SSE,9.2,,,,,160,2013-02-15 18:00:00
10:00 AM,48.2,44.6,87,30.09,9.0,South,11.5,19.6,N/A,,Overcast,170,2013-02-15 18:00:00
11:00 AM,48.2,44.6,87,30.08,9.0,South,19.6,25.3,N/A,,Overcast,170,2013-02-15 19:00:00
12:00 PM,48.2,44.6,87,30.08,9.0,SSE,16.1,23.0,N/A,,Overcast,150,2013-02-15 20:00:00
1:00 PM,50.0,42.8,76,30.06,9.0,South,9.2,-,N/A,,Overcast,180,2013-02-15 21:00:00
1:41 PM,50.0,42.8,76,30.05,9.0,South,10.4,18.4,N/A,Rain,Light Rain,170,2013-02-15 21:41:00
2:00 PM,48.2,42.8,82,30.04,9.0,SSE,10.4,-,N/A,Rain,Light Rain,160,2013-02-15 22:00:00
3:00 PM,48.2,44.6,87,30.03,9.0,SE,9.2,-,N/A,Rain,Light Rain,130,2013-02-15 23:00:00
3:32 PM,46.4,42.8,87,30.01,5.0,SE,15.0,-,N/A,Rain,Light Rain,130,2013-02-15 23:32:00
3:42 PM,46.4,42.8,87,30.01,6.0,SSE,16.1,-,N/A,Rain,Light Rain,150,2013-02-15 23:42:00
4:00 PM,46,,,30.01,,SSE,11.5,,,,,160,2013-02-16 00:00:00
4:00 PM,46.4,44.6,93,30.01,8.0,SE,16.1,-,N/A,Rain,Light Rain,140,2013-02-16 00:00:00
5:00 PM,46.4,42.8,87,29.99,9.0,SSE,15.0,-,N/A,Rain,Light Rain,150,2013-02-16 01:00:00
6:00 PM,44.6,42.8,93,29.98,6.0,SSE,6.9,-,N/A,Rain,Light Rain,160,2013-02-16 02:00:00
6:38 PM,44.6,42.8,93,29.97,9.0,SSE,9.2,-,N/A,,Overcast,150,2013-02-16 02:38:00
6:43 PM,44.6,42.8,93,29.97,9.0,SSE,9.2,-,N/A,Rain,Light Rain,160,2013-02-16 02:43:00
7:00 PM,44.6,42.8,93,29.97,8.0,South,6.9,-,N/A,Rain,Light Rain,170,2013-02-16 03:00:00
8:00 PM,44.6,42.8,93,29.97,8.0,SSE,6.9,-,N/A,Rain,Light Rain,150,2013-02-16 04:00:00
8:39 PM,44.6,42.8,93,29.98,5.0,West,4.6,-,N/A,Rain,Light Rain,260,2013-02-16 04:39:00
8:52 PM,44.6,42.8,93,29.97,6.0,WNW,2.3,-,N/A,Rain,Light Rain,300,2013-02-16 04:52:00
9:00 PM,42.8,42.8,100,29.98,8.0,WNW,4.6,-,N/A,Rain,Light Rain,290,2013-02-16 05:00:00
9:52 PM,42.8,41.0,93,29.97,9.0,SSW,3.5,-,N/A,,Overcast,210,2013-02-16 05:52:00
10:00 PM,43,,,29.97,,South,2.3,,,,,190,2013-02-16 06:00:00
10:00 PM,42.8,41.0,93,29.97,9.0,South,3.5,-,N/A,,Overcast,190,2013-02-16 06:00:00
10:53 PM,42.8,41.0,93,29.98,9.0,West,2.3,-,N/A,Rain,Light Rain,280,2013-02-16 06:53:00
11:00 PM,42.8,41.0,93,29.98,9.0,WNW,2.3,-,N/A,Rain,Light Rain,290,2013-02-16 07:00:00
11:31 PM,42.8,41.0,93,29.98,9.0,NNW,5.8,-,N/A,Rain,Light Rain,330,2013-02-16 07:31:00
11:39 PM,42.8,41.0,93,29.98,9.0,North,12.7,-,N/A,Rain,Light Rain,360,2013-02-16 07:39:00
11:40 PM,42.8,41.0,93,29.98,8.0,North,12.7,-,N/A,Rain,Light Rain,350,2013-02-16 07:40:00
11:42 PM,42.8,41.0,93,29.98,5.0,North,11.5,-,N/A,Rain,Light Rain,350,2013-02-16 07:42:00
11:43 PM,42.8,41.0,93,29.98,5.0,NNW,12.7,-,N/A,Rain,Light Rain,340,2013-02-16 07:43:00
11:46 PM,42.8,41.0,93,29.98,4.0,North,16.1,-,N/A,Rain,Light Rain,350,2013-02-16 07:46:00